2021-117A (49812 NORAD) Tracking and Keplerian Element Data
This shows tracking and keplerian element data for the satellite.
Feedback or suggestion? Click here.
Element | Value |
Catalog | 49812 |
Name | 2021-117A |
Epoch Orbit | 2510 |
Epoch Day | 140.83878465 |
Epoch Year | 2022 |
RAAN | 216.8924 |
Inclination | 97.3839 |
Eccentricity | 0.0014565 |
Argument of Perigee | 79.6288 |
Mean Anonmoly | 29.417 |
Mean Motion | 15.26820475 |
Decay Rate | 0.00014532 |
L1 | 1 49812U 21117A 22140.83878465 .00014532 00000+0 55194-3 0 9995 |
L2 | 2 49812 97.3839 216.8924 0014565 79.6288 29.4170 15.26820475 25109 |
Live tracking and technical data element details for 2021-117A (NORAD 49812). 2021-117A can be tracked NOW for your location showing map with azimuth and elevation plus other details from your city location.
Track the satellite on the map from your city or location and see movement details for azimuth, elevation, latitude, longitude, range, height, and movement on the map or in text.
IsCatalogInMostPopularTable: catalog: 49812, numindb: 22
Update: records affected: 1
GetName: 49812 2021-117A
Hit Count: updated at: Sun, 22 May 2022 03:57:05 GMT